Location: Juniper Campground
(35.7953°N, 106.2814°W)
Time: 02:27:14
(UTC-07:00)

Envisat - Visible Passes

Search period start: 23 January 2019 00:00
Search period end: 02 February 2019 00:00
Orbit: 764 x 766 km, 98.2° (Epoch: 23 January)

Date Brightness Start Highest point End Pass type
(mag) Time Alt. Az. Time Alt. Az. Time Alt. Az.
23 Jan 6.2 06:21:46 10° ENE 06:24:01 13° E 06:26:17 10° ESE visible
23 Jan 3.4 19:09:53 10° S 19:14:53 62° W 19:19:55 10° NNW visible
24 Jan 3.0 18:33:15 10° SSE 18:38:11 56° ENE 18:43:09 10° N visible
24 Jan 5.9 20:14:54 10° WSW 20:17:31 14° W 20:20:08 10° WNW visible
25 Jan 4.0 17:57:39 10° ESE 18:01:41 24° ENE 18:05:43 10° NNE visible
25 Jan 4.6 19:35:58 10° SSW 19:40:30 33° W 19:45:04 10° NNW visible
26 Jan 3.0 18:58:37 10° S 19:03:40 80° WSW 19:08:46 10° NNW visible
27 Jan 3.3 18:22:17 10° SE 18:27:03 43° ENE 18:31:49 10° N visible
27 Jan 5.6 20:02:46 10° SW 20:06:13 18° W 20:09:40 10° NW visible
28 Jan 5.9 06:34:58 10° NE 06:38:30 19° E 06:42:00 10° SE visible
28 Jan 4.1 19:24:28 10° S 19:29:15 43° W 19:34:05 10° NNW visible
29 Jan 2.9 18:47:26 10° SSE 18:52:29 80° ENE 18:57:34 10° N visible
30 Jan 3.6 18:11:23 10° SE 18:15:54 34° ENE 18:20:26 10° N visible
30 Jan 5.2 19:50:55 10° SSW 19:54:56 24° W 19:58:57 10° NW visible
31 Jan 6.2 06:24:29 10° ENE 06:27:12 14° E 06:29:54 10° SE visible
31 Jan 3.6 19:13:04 10° S 19:18:01 56° W 19:23:00 10° NNW visible
01 Feb 2.9 18:36:20 10° SSE 18:41:19 62° ENE 18:46:18 10° N visible
01 Feb 6.0 20:18:33 10° WSW 20:20:41 13° W 20:22:50 10° WNW visible
